[[{"header":{"parameterUnit":"m.s-1","parameterCategory":1,"la1":30.2991,"la2":30.254,"lo1":-89.0895,"lo2":-89.0444,"dy":0.0017,"dx":0.0017,"nx":28,"ny":28,"refTime":"2025-01-26T03:00:00:Z","depth":0,"parameterNumber":2,"parameterNumberName":"U-component_of_WINDS"},"data":[0,0,0,0,0,0,0,0,0,0,0,0,0,0,0,0,0,0,0,0,0,0,0,0,0,0,0,0,0,0,0,0,0,0,0,0,0,0,0,0,0,0,0,0,0,0,0,0,0,0,0,0,0,0,0,0,0,0,-3.0091,-3.0092,0,-3.0154,-3.0155,-3.0155,-3.0142,-3.0141,-3.014,-3.0139,-3.0204,-3.0206,-3.0209,0,0,0,0,0,0,0,0,0,0,0,0,0,-2.9959,-2.9962,-3.0091,-3.0092,-3.0092,-3.0154,-3.0155,-3.0156,-3.0142,-3.0141,-3.014,-3.0138,-3.0203,-3.0206,-3.0209,0,0,0,0,0,0,0,0,0,0,0,0,0,-3.0019,-2.9963,-3.0091,-3.0093,-3.0094,-3.0154,-3.0155,-3.0156,-3.0143,-3.0141,-3.0139,-3.0138,-3.0202,-3.0206,-3.021,-3.0271,0,0,-3.0223,-3.0225,0,0,0,0,0,0,0,0,-3.0015,-3.0024,-3.0092,-3.0093,-3.0094,-3.0138,-3.0132,-3.0195,-3.0143,-3.0124,-3.0139,-3.0137,-3.0183,-3.0189,-3.0205,-3.0274,-3.0277,-3.0223,-3.0226,-3.0228,-3.0229,0,0,0,0,0,0,0,-3.0011,-3.0021,-3.0116,-3.0093,-3.0094,-3.0091,-3.0098,-3.0144,-3.0163,-3.0126,-3.0125,-3.0133,-3.0184,-3.0201,-3.0206,-3.0278,-3.0223,-3.0227,-3.0229,-3.0231,-3.0401,-3.0402,0,0,0,0,0,0,-3.0006,-3.0017,-3.0114,-3.0118,-3.005,-3.0095,-3.0102,-3.0126,-3.0162,-3.0166,-3.0134,-3.0132,-3.0194,-3.0201,-3.0208,-3.0282,-3.0227,-3.0231,-3.0234,-3.0399,-3.0401,-3.0403,0,0,0,0,0,0,-3.0003,-3.0015,-3.0111,-3.0067,-3.0079,-3.0099,-3.0126,-3.0128,-3.0145,-3.0169,-3.0172,-3.0148,-3.0193,-3.0202,-3.0256,-3.0284,-3.0233,-3.0237,-3.0396,-3.0399,-3.0402,-3.0429,0,0,0,0,0,0,-3.0,-3.0014,-3.0037,-3.0068,-3.0082,-3.0157,-3.0128,-3.0131,-3.0152,-3.015,-3.0182,-3.0186,-3.0193,-3.0249,-3.026,-3.0289,-3.0241,-3.0394,-3.0398,-3.0401,-3.0426,-3.0433,-3.0439,0,0,0,0,0,-2.9995,-3.0042,-3.0038,-3.005,-3.0111,-3.0159,-3.0167,-3.0173,-3.0155,-3.0178,-3.0194,-3.0185,-3.028,-3.0255,-3.0266,-3.0297,-3.0392,-3.0397,-3.0401,-3.0423,-3.0431,-3.0439,0,0,0,0,0,0,-3.0014,-3.0046,-3.0042,-3.0101,-3.0127,-3.0156,-3.0186,-3.0182,-3.0214,-3.021,-3.0217,-3.0224,-3.0278,-3.0293,-3.0265,-3.0358,-3.0333,-3.034,-3.0346,-3.0354,-3.0361,-3.0355,-3.0244,0,0,0,0,0,-3.0025,-3.0061,-3.0088,-3.0137,-3.015,-3.0166,-3.0187,-3.019,-3.0217,-3.0228,-3.0247,-3.0274,-3.031,-3.0333,-3.0367,-3.0429,-3.0435,-3.0456,-3.0462,-3.0467,-3.0473,-3.0506,-3.0515,-3.0418,-3.0418,-3.0418,0,0,-3.0048,-3.0071,-3.0093,-3.0141,-3.0162,-3.0199,-3.0175,-3.0216,-3.0243,-3.0234,-3.0285,-3.03,-3.0331,-3.0388,-3.0415,-3.0403,-3.0501,-3.0473,-3.0477,-3.0479,-3.0511,-3.0521,-3.0529,-3.0421,-3.042,-3.042,0,0,-3.0109,-3.013,-3.0173,-3.0194,-3.0226,-3.0236,-3.0247,-3.0277,-3.0286,-3.0338,-3.0332,-3.0365,-3.0427,-3.0449,-3.0468,-3.0538,-3.0531,-3.0549,-3.0582,-3.0614,-3.0622,-3.0629,-3.0653,-3.0662,-3.0555,-3.0555,-3.0555,0,-3.0134,-3.0189,-3.0195,-3.0236,-3.0257,-3.0252,-3.0296,-3.0316,-3.0357,-3.0372,-3.0359,-3.0436,-3.0456,-3.0518,-3.0535,-3.0552,-3.0564,-3.0545,-3.062,-3.0627,-3.0634,-3.0657,-3.0666,-3.0557,-3.0557,-3.0557,-3.0557,0,-3.0217,-3.0256,-3.0287,-3.0326,-3.0352,-3.0394,-3.0407,-3.0432,-3.0433,-3.0445,-3.0497,-3.0522,-3.0561,-3.0576,-3.0578,-3.0639,-3.063,-3.0619,-3.0593,-3.0645,-3.0666,-3.0675,-3.056,-3.0559,-3.0559,-3.0558,0,0,-3.029,-3.0333,-3.0345,-3.0362,-3.0397,-3.0427,-3.047,-3.0508,-3.0528,-3.0558,-3.0593,-3.0646,-3.0635,-3.0657,-3.0661,-3.069,-3.0743,-3.0675,-3.0675,-3.0685,-3.0811,-3.0818,-3.0829,-3.074,-3.0741,-3.0743,-3.0808,0,-3.0352,-3.0426,-3.0434,-3.0499,-3.0535,-3.0531,-3.0568,-3.0593,-3.0606,-3.0638,-3.0653,-3.0689,-3.0673,-3.0686,-3.0715,-3.073,-3.0768,-3.0726,-3.0772,-3.0773,-3.0762,-3.084,-3.0848,-3.0908,-3.0817,-3.0818,-3.0819,0,-3.0435,-3.0466,-3.0535,-3.0566,-3.0581,-3.0613,-3.0649,-3.068,-3.0709,-3.0717,-3.0742,-3.0742,-3.0786,-3.076,-3.082,-3.0792,-3.0811,-3.0822,-3.0825,-3.0828,-3.0798,-3.0844,-3.0928,-3.0936,-3.0833,-3.0832,-3.0831,0,-3.0479,-3.0539,-3.0588,-3.0604,-3.0641,-3.0664,-3.068,-3.0708,-3.073,-3.0762,-3.0776,-3.0813,-3.0833,-3.0861,-3.0872,-3.0852,-3.0931,-3.0906,-3.0938,-3.0937,-3.0953,-3.0951,-3.104,-3.0968,-3.0968,-3.0968,-3.0968,0,-3.0548,-3.059,-3.0609,-3.0638,-3.0686,-3.0695,-3.0742,-3.0757,-3.0782,-3.0815,-3.0815,-3.0846,-3.0859,-3.0892,-3.0901,-3.0949,-3.0958,-3.0965,-3.0966,-3.0964,-3.0963,-3.0976,-3.0971,-3.097,-3.097,-3.0969,-3.0969,0,-3.0605,-3.0619,-3.0672,-3.0703,-3.0711,-3.0745,-3.0771,-3.08,-3.0813,-3.0855,-3.0866,-3.0886,-3.0925,-3.0939,-3.0987,-3.0993,-3.1048,-3.1047,-3.1038,-3.1038,-3.1068,-3.1065,-3.1166,-3.118,-3.1101,-3.1102,-3.1102,0,-3.0646,-3.0679,-3.0713,-3.0735,-3.0752,-3.0788,-3.0811,-3.0822,-3.0846,-3.0882,-3.0907,-3.0946,-3.0977,-3.104,-3.1059,-3.1096,-3.1095,-3.1128,-3.11,-3.1097,-3.1094,-3.1091,-3.1094,-3.1133,-3.1133,-3.1134,-3.1135,0,-3.0718,-3.0724,-3.0757,-3.0793,-3.082,-3.0849,-3.0877,-3.0895,-3.091,-3.0937,-3.0977,-3.1002,-3.1051,-3.109,-3.1127,-3.1145,-3.1142,-3.1144,-3.1153,-3.1149,-3.1142,-3.1145,-3.105,-3.1141,-3.114,-3.114,-3.1139,-3.1139,-3.0768,-3.0796,-3.0825,-3.0862,-3.0884,-3.091,-3.0939,-3.0956,-3.0989,-3.1029,-3.1034,-3.1077,-3.1107,-3.1157,-3.1176,-3.121,-3.1201,-3.1214,-3.1217,-3.122,-3.1222,-3.1139,-3.1217,-3.1217,-3.1217,-3.1217,-3.1217,0,-3.0839,-3.0857,-3.0891,-3.093,-3.0959,-3.0955,-3.0986,-3.1011,-3.1048,-3.1076,-3.1107,-3.1153,-3.1191,-3.1214,-3.1252,-3.1274,-3.1274,-3.1284,-3.1281,-3.1285,-3.1228,-3.1216,-3.1283,-3.1283,-3.1283,-3.1283,-3.1283,-3.1283,-3.0879,-3.0927,-3.0936,-3.0995,-3.1013,-3.1055,-3.1073,-3.1097,-3.1119,-3.117,-3.1202,-3.1216,-3.1242,-3.1282,-3.1316,-3.1322,-3.1336,-3.1346,-3.1351,-3.1296,-3.1289,-3.1283,-3.1271,-3.1349,-3.1349,-3.1405,-3.1405,-3.1406]},{"header":{"parameterUnit":"m.s-1","parameterCategory":1,"la1":30.2991,"la2":30.254,"lo1":-89.0895,"lo2":-89.0444,"dy":0.0017,"dx":0.0017,"nx":28,"ny":28,"refTime":"2025-01-26T03:00:00:Z","depth":0,"parameterNumber":3,"parameterNumberName":"V-component_of_WINDS"},"data":[0,0,0,0,0,0,0,0,0,0,0,0,0,0,0,0,0,0,0,0,0,0,0,0,0,0,0,0,0,0,0,0,0,0,0,0,0,0,0,0,0,0,0,0,0,0,0,0,0,0,0,0,0,0,0,0,0,0,2.526,2.5261,0,2.5306,2.5307,2.5307,2.5303,2.5302,2.5301,2.5301,2.5348,2.535,2.5352,0,0,0,0,0,0,0,0,0,0,0,0,0,2.5171,2.5173,2.526,2.5261,2.5261,2.5306,2.5307,2.5307,2.5303,2.5302,2.5301,2.53,2.5347,2.5349,2.5352,0,0,0,0,0,0,0,0,0,0,0,0,0,2.5213,2.5173,2.526,2.5265,2.5265,2.5306,2.5307,2.5307,2.5303,2.5302,2.5301,2.53,2.5346,2.5349,2.5352,2.5391,0,0,2.5361,2.5362,0,0,0,0,0,0,0,0,2.521,2.5216,2.5263,2.5264,2.5265,2.5298,2.5292,2.5336,2.5303,2.5289,2.5301,2.5299,2.5332,2.5336,2.5347,2.5393,2.5395,2.5361,2.5363,2.5364,2.5365,0,0,0,0,0,0,0,2.5207,2.5214,2.5278,2.5264,2.5265,2.5265,2.527,2.5301,2.5316,2.529,2.529,2.5295,2.5332,2.5344,2.5348,2.5396,2.5361,2.5364,2.5365,2.5366,2.548,2.5481,0,0,0,0,0,0,2.5203,2.5211,2.5277,2.528,2.5235,2.5267,2.5273,2.5288,2.5315,2.5319,2.5296,2.5295,2.534,2.5345,2.535,2.5399,2.5364,2.5367,2.5368,2.5478,2.548,2.5481,0,0,0,0,0,0,2.5201,2.5209,2.5275,2.5246,2.5254,2.527,2.5288,2.529,2.5302,2.532,2.5323,2.5305,2.5339,2.5346,2.5382,2.5401,2.5368,2.5371,2.5477,2.5479,2.5481,2.5497,0,0,0,0,0,0,2.5199,2.5208,2.5223,2.5246,2.5256,2.5306,2.5289,2.5292,2.5307,2.5305,2.533,2.5332,2.5339,2.5377,2.5384,2.5404,2.5373,2.5475,2.5478,2.548,2.5495,2.55,2.5503,0,0,0,0,0,2.5196,2.5225,2.5224,2.5232,2.5274,2.5307,2.5312,2.5319,2.5308,2.5323,2.5336,2.5332,2.5397,2.5381,2.5389,2.541,2.5474,2.5477,2.548,2.5493,2.5499,2.5503,0,0,0,0,0,0,2.5204,2.5228,2.5227,2.5265,2.5284,2.5306,2.5325,2.5324,2.5347,2.5345,2.5352,2.5358,2.5394,2.5405,2.5387,2.545,2.5434,2.5439,2.5442,2.5447,2.5451,2.5448,2.5375,0,0,0,0,0,2.521,2.5234,2.5254,2.5286,2.5296,2.5309,2.5323,2.5327,2.5347,2.5355,2.537,2.539,2.5415,2.5431,2.5456,2.5497,2.5503,2.5515,2.5519,2.5522,2.5527,2.5552,2.5558,2.5491,2.5491,2.5491,0,0,2.5223,2.5239,2.5254,2.5288,2.5303,2.5329,2.5316,2.5343,2.5363,2.5359,2.5395,2.5406,2.5429,2.5468,2.5486,2.5479,2.5547,2.5526,2.5529,2.5531,2.5555,2.5562,2.5567,2.5493,2.5492,2.5492,0,0,2.526,2.5274,2.5303,2.5319,2.5343,2.5352,2.5359,2.5381,2.5389,2.5425,2.5424,2.5447,2.549,2.5507,2.5521,2.5567,2.5566,2.5575,2.5597,2.5621,2.5626,2.5631,2.565,2.5656,2.5579,2.5579,2.5579,0,2.5274,2.5312,2.5318,2.5347,2.5363,2.5361,2.5392,2.5406,2.5437,2.5448,2.5439,2.5495,2.5509,2.5554,2.5565,2.5576,2.5586,2.5573,2.5625,2.563,2.5634,2.5652,2.5659,2.558,2.558,2.558,2.558,0,2.5328,2.5355,2.5376,2.5406,2.5424,2.5453,2.5465,2.5482,2.5485,2.5495,2.5533,2.5551,2.558,2.559,2.5592,2.5636,2.5631,2.5623,2.5608,2.5642,2.5659,2.5665,2.5582,2.5581,2.5581,2.5581,0,0,2.5372,2.5406,2.5414,2.5428,2.5455,2.5476,2.5506,2.5534,2.5551,2.5571,2.5598,2.5635,2.5629,2.5645,2.565,2.5671,2.5709,2.5661,2.5662,2.5671,2.576,2.5767,2.5774,2.5707,2.5709,2.571,2.5759,0,2.5413,2.5466,2.5473,2.552,2.5547,2.5546,2.5573,2.5592,2.5603,2.5627,2.5639,2.5666,2.5655,2.5665,2.5686,2.57,2.5727,2.5696,2.5733,2.5734,2.5729,2.5783,2.579,2.5835,2.5765,2.5767,2.5767,0,2.5469,2.5492,2.5542,2.5567,2.5578,2.5602,2.563,2.5652,2.5676,2.5682,2.5701,2.5703,2.5736,2.5718,2.5763,2.5742,2.5758,2.5767,2.5769,2.5774,2.5754,2.5791,2.585,2.5857,2.5777,2.5777,2.5776,0,2.5498,2.5542,2.5578,2.559,2.562,2.5637,2.565,2.5672,2.5689,2.5714,2.5726,2.5753,2.5769,2.5791,2.5801,2.5787,2.5847,2.5829,2.5854,2.5854,2.5868,2.5867,2.5932,2.5875,2.5875,2.5875,2.5875,0,2.5544,2.5575,2.5592,2.5614,2.565,2.5658,2.5693,2.5706,2.5726,2.5752,2.5752,2.5777,2.5788,2.5814,2.5822,2.586,2.5867,2.5874,2.5876,2.5875,2.5874,2.5886,2.5884,2.5877,2.5876,2.5876,2.5876,0,2.5583,2.5595,2.5635,2.566,2.5668,2.5693,2.5715,2.5737,2.5748,2.5781,2.5789,2.5806,2.5837,2.585,2.5887,2.5893,2.5937,2.5936,2.593,2.5931,2.5956,2.5954,2.6032,2.6043,2.5977,2.5978,2.5978,0,2.5613,2.5637,2.5665,2.5683,2.5697,2.5724,2.5743,2.5752,2.5771,2.5801,2.582,2.5851,2.5877,2.5927,2.5943,2.5973,2.5973,2.5999,2.5978,2.5977,2.5976,2.5976,2.5979,2.6003,2.6004,2.6004,2.6005,0,2.5665,2.5671,2.5696,2.5725,2.5747,2.577,2.5793,2.5807,2.5821,2.5842,2.5875,2.5895,2.5934,2.5966,2.5997,2.6011,2.6011,2.6011,2.6019,2.6019,2.6015,2.6019,2.5942,2.6009,2.6009,2.6008,2.6008,2.6008,2.5702,2.5724,2.5748,2.5778,2.5796,2.5817,2.584,2.5855,2.5882,2.5915,2.5919,2.5954,2.5978,2.602,2.6036,2.6064,2.6057,2.6068,2.6071,2.6074,2.6077,2.6009,2.6069,2.6069,2.6069,2.6069,2.6069,0,2.5756,2.5772,2.5799,2.5831,2.5855,2.5852,2.5877,2.5898,2.5929,2.5951,2.5977,2.6015,2.6046,2.6066,2.6098,2.6117,2.6118,2.6125,2.6124,2.6128,2.608,2.6071,2.6124,2.6124,2.6124,2.6124,2.6124,2.6124,2.5787,2.5825,2.5834,2.5882,2.5897,2.5932,2.5947,2.5967,2.5986,2.6028,2.6055,2.6067,2.6089,2.6123,2.6152,2.6157,2.6169,2.6177,2.6182,2.6137,2.6131,2.6126,2.6118,2.6179,2.618,2.6228,2.6229,2.6229]}]]